Find Starlink 34356

NORAD ID: 64303 Int'l Des: 2025-123 Owner: SPXS Country: US Constellation: starlink operational
LEOCIRCULAR

Live Position

Loading 3D Globe...

About Starlink 34356

Description loading...

Upcoming Passes

Passes for default location (London). Set your location on the main map for personalized predictions.

Altitude History

Loading altitude history...

Two-Line Element Set

1 64303U 25123N 26104.94676598 .00002902 00000-0 25083-3 0 9990
2 64303 69.9998 102.8737 0003524 270.0641 90.0114 14.98345940 47058
Epoch: Apr 14, 2026 • Age: 5 hours

Current Status

Altitude 584.3 km
Velocity 7.57 km/s
Sub-Earth Point 62.03°N, 115.61°W
Launch Date Jun 8, 2025
Age 0.8 years
Type internet

Technical Details

Classification Payload
Mass 575.00 kg
Dry Mass 530.00 kg
Total Mass 575.00 kg
Length 0.30 m
Diameter 4.10 m
Span 29.00 m
Shape Box + pan
Manufacturer SPXS
Bus Type Starlink V2MO
Phase Status In Orbit
Owner/State SPXS/US

Most Searched